Regional Weather Roundup
Issued by NWS

Home | Current Version | Previous Version | Graphics & Text | Print | Product List | Glossary On
Versions: 1 2 3 4 5 6 7 8 9 10 11 12 13 14 15 16 17 18 19 20 21 22 23 24 25 26 27 28 29 30 31 32 33 34 35 36 37 38 39 40 41 42 43 44 45 46 47 48 49 50
000
ASUS43 KOAX 222310
RWRNE

WEATHER ROUNDUP FOR NEBRASKA
NATIONAL WEATHER SERVICE OMAHA NE
600 PM CDT THU JUN 22 2017

NOTES: SATELLITE DATA IS BEING USED TO AUGMENT CLOUD COVER ABOVE
       12000 FEET.
       "FAIR" INDICATES FEW OR NO CLOUDS BELOW 12,000 FEET WITH NO
       SIGNIFICANT WEATHER AND/OR OBSTRUCTIONS TO VISIBILITY.

  * THESE STATIONS DO NOT REPORT WEATHER SUCH AS RAIN...SNOW OR FOG.

NEZ001>004-019>022-054>056-230000-
NEBRASKA PANHANDLE

CITY           SKY/WX    TMP DP  RH WIND       PRES   REMARKS
SCOTTSBLUFF    MOSUNNY   80  53  39 NE13G20   29.90R
ALLIANCE       MOSUNNY   79  51  37 NE17      29.90F
CHADRON        SUNNY     78  42  27 NE10      29.91F
GORDON         FAIR      76  45  33 N13G21    29.91S
KIMBALL        CLOUDY    78  53  40 E15G21    29.96R
SIDNEY         PTSUNNY   78  54  43 NE14      29.93R
$$

NEZ057>060-069>072-079>082-230000-
SOUTHWEST NEBRASKA

CITY           SKY/WX    TMP DP  RH WIND       PRES   REMARKS
NORTH PLATTE   MOSUNNY   81  58  45 NE17G25   29.81R
IMPERIAL       SUNNY     85  53  33 NE17G26   29.82R
LEXINGTON      MOSUNNY   83  61  46 N17G24    29.76R
MCCOOK         SUNNY     87  62  43 NE22G28   29.73S
OGALLALA       MOSUNNY   82  55  39 NE17      29.86S
$$

NEZ005>010-023>029-035>040-094-230000-
NORTH CENTRAL NEBRASKA

CITY           SKY/WX    TMP DP  RH WIND       PRES   REMARKS
VALENTINE      MOSUNNY   79  45  29 N12       29.87S
AINSWORTH      PTSUNNY   71  51  48 NE12      29.87F
BROKEN BOW     PTSUNNY   81  59  47 N17G25    29.79R
O`NEILL        MOSUNNY   73  60  64 N16       29.82R
ORD            CLOUDY    80  58  46 N18       29.76R
THEDFORD       MOSUNNY   76  53  44 N14G23    29.87S
$$

NEZ041-046>049-061>064-073>077-083>087-230000-
SOUTH CENTRAL NEBRASKA

CITY           SKY/WX    TMP DP  RH WIND       PRES   REMARKS
GRAND ISLAND   MOSUNNY   85  67  54 N23G31    29.69R
AURORA         MOSUNNY   88  65  47 N22G28    29.66R HX  90
HASTINGS       MOSUNNY   89  65  44 N16       29.68R HX  91
HEBRON         MOSUNNY   96  64  34 N7        29.60S HX  97
HOLDREGE       SUNNY     84  63  49 N22G29    29.72R
KEARNEY *      SUNNY     88  63  42 N24G32    29.71S
YORK           PTSUNNY   90  64  43 N9        29.64S HX  91
$$

NEZ011>018-030>034-042>045-230000-
NORTHEAST NEBRASKA

CITY           SKY/WX    TMP DP  RH WIND       PRES   REMARKS
NORFOLK        CLOUDY    81  61  50 N17G25    29.70R
ALBION         CLOUDY    84  55  37 N20G28    29.72R
BLAIR          CLOUDY    89  68  49 S6        29.64S HX  92
FREMONT        CLOUDY    87  66  49 CALM      29.64R
TEKAMAH        CLOUDY    89  65  44 N15       29.63S HX  91
WAYNE          CLOUDY    83  62  49 N15       29.70S
$$

NEZ050>053-065>068-078-088>093-230000-
SOUTHEAST NEBRASKA

CITY           SKY/WX    TMP DP  RH WIND       PRES   REMARKS
LINCOLN        CLOUDY    89  69  51 N9        29.61F HX  93
OMAHA EPPLEY   CLOUDY    91  67  44 SW7       29.61F HX  94
BEATRICE       PTSUNNY   90  71  52 SE9       29.60F HX  96
FALLS CITY     MOSUNNY   87  67  51 S8        29.62R HX  90
NEBRASKA CITY  PTSUNNY   88  71  57 S8        29.63F HX  94
PLATTSMOUTH    CLOUDY    87  68  52 S5        29.62F HX  90
$$

NEZ044-045-051>053-067-230000-
OMAHA AREA

CITY           SKY/WX    TMP DP  RH WIND       PRES   REMARKS
OMAHA EPPLEY   CLOUDY    91  67  44 SW7       29.61F HX  94
BLAIR          CLOUDY    89  68  49 S6        29.64S HX  92
FREMONT        CLOUDY    87  66  49 CALM      29.64R
MILLARD        CLOUDY    90  71  52 W3        29.62S HX  96
OFFUTT AFB     MOSUNNY   89  69  51 W5        29.61F HX  93
PLATTSMOUTH    CLOUDY    87  68  52 S5        29.62F HX  90
WAHOO          MOCLDY    89  65  44 NW3       29.63S HX  91
$$




USA.gov is the U.S. government's official web portal to all federal, state and local government web resources and services.